Weather Roundup
Issued by NWS Springfield, MO

Home | Current Version | Previous Version | Text Only | Print | Product List | Glossary On
Versions: 1 2 3 4 5 6 7 8 9 10 11 12 13 14 15 16 17 18 19 20 21 22 23 24 25 26 27 28 29 30 31 32 33 34 35 36 37 38 39 40 41 42 43 44 45 46 47 48 49 50
000
NZUS99 KSGF 192207
HRRSGF

HOURLY WEATHER
NATIONAL WEATHER SERVICE SPRINGFIELD MO
500 PM CDT TUE AUG 19 2014

......SGF CWA......

CITY           SKY/WX    TMP DP  RH WIND       PRES   REMARKS
SPRINGFIELD    SUNNY     96  61  31 SW13      29.84F HX  96
JOPLIN         SUNNY     95  66  38 SW13      29.83F HX  98
WEST PLAINS    SUNNY     93  66  40 VRB6      29.86F HX  96
ROLLA          SUNNY     89  66  46 SW10      29.82F HX  91
OSAGE BEACH    SUNNY     91  68  46 W6        29.82S HX  95
BRANSON        MOSUNNY   97  61  30 SW8       29.87F HX  97

......SURROUNDING SGF CWA......

CITY           SKY/WX    TMP DP  RH WIND       PRES   REMARKS
CHANUTE        MOSUNNY   98  66  34 S12G22    29.81F HX 101
PARSONS        MOSUNNY   95  68  41 S10       29.83S HX  99
COFFEYVILLE    MOSUNNY   95  67  39 SW14      29.81F HX  99
EMPORIA        SUNNY     96  59  29 S9        29.79F HX  95
GROVE OK       SUNNY     95  68  41 SW8       29.86S HX  99
ROGERS AR      SUNNY     91  66  43 SW9G18    29.90F HX  93
SILOAM SPRINGS SUNNY     90  68  48 W7        29.89F HX  93
HARRISON AR    MOSUNNY   88  71  57 VRB5      29.88F HX  94
NEAR YELLVILLE   N/A     97  64  34 SW12      29.84S HX  99

......KANSAS AND MISSOURI......

CITY           SKY/WX    TMP DP  RH WIND       PRES   REMARKS
KANSAS CTY INT MOSUNNY   90  72  55 SW5       29.81F HX  97
DOWNTOWN KC    SUNNY     93  70  46 W5        29.78F HX  99
COLUMBIA       SUNNY     89  69  51 W7        29.82F HX  93
SEDALIA        SUNNY     88  71  57 SW9       29.82F HX  94
ST JOSEPH      SUNNY     87  73  62 SW6       29.80F HX  94
ST LOUIS       MOSUNNY   89  71  55 SW10      29.80F HX  95
SPIRIT OF STL  MOSUNNY   88  71  57 W7        29.79S HX  94
KIRKSVILLE     SUNNY     86  71  60 W7        29.80F HX  91
WICHITA        MOSUNNY   95  64  35 S20       29.79F HX  97
TOPEKA         SUNNY     96  64  34 SW6       29.78F HX  98
OLATHE         SUNNY     93  66  40 VRB5      29.80F HX  96

......TENNESSEE......

CITY           SKY/WX    TMP DP  RH WIND       PRES   REMARKS
MEMPHIS        MOSUNNY   92  74  55 SW12      29.84F HX 101
NASHVILLE      PTSUNNY   89  71  55 W8        29.86S HX  95

......ARKANSAS.......

CITY           SKY/WX    TMP DP  RH WIND       PRES   REMARKS
FAYETTEVILLE   SUNNY     91  67  44 SW8       29.89F HX  94
FT SMITH       SUNNY     93  74  53 SW10      29.83F HX 103
LITTLE ROCK    MOSUNNY   93  74  53 S13       29.84F HX 103

......OKLAHOMA.......

CITY           SKY/WX    TMP DP  RH WIND       PRES   REMARKS
TULSA          MOSUNNY   98  66  34 S14G23    29.80S HX 101
PONCA CITY     SUNNY     94  66  39 SW10      29.80F HX  97
MCALESTER      SUNNY     92  74  55 S7        29.85F HX 101
OKLAHOMA CITY  PTSUNNY   94  67  41 S15G22    29.82F HX  97

......IOWA............

CITY           SKY/WX    TMP DP  RH WIND       PRES   REMARKS
DES MOINES     MOSUNNY   86  64  47 W8        29.78F
QUAD CITIES    SUNNY     86  63  45 W14       29.74R

......ILLINOIS........

CITY           SKY/WX    TMP DP  RH WIND       PRES   REMARKS
QUINCY         MOSUNNY   84  72  67 SW6       29.79F
CHICAGO        MOSUNNY   86  63  45 W13       29.70R



USA.gov is the U.S. government's official web portal to all federal, state and local government web resources and services.